Vahid Moharrami

Scout - Tractor
4 Dec 2028
Monday
Process

Personality

Adaptability (8) Ambition (15) Controversy (11) Loyalty (12) Pressure (13) Professionalism (10) Sportsmanship (5) Temperament (11)

Profile

Coaching Style Democratic
License Continental C
Determination 4
Man Management 9
Motivating 8
Discipline 5
Job Satisfaction
100%
Fatigue
0%
Role Scout
Wage 13.9K p/w
Contract 14.03.2029

Performance

Behaviour Good
Training Effectiveness
40%
Player Development
20%
Injury Prevention
60%
Tactical Implementation
55%

Recent Events

Assessed a player now
Attended a recruitment meeting now
Assessed a player now
Assessed a player now
Assessed a player now
Assessed a player 7d ago
Assessed a player 7d ago
Assessed a player 7d ago

Currently Monitoring

157
Player Club Status Ability Confidence Watched Last Observed Latest Vote
Alan Lescano Argentinos Juniors Active 142 / 124 40% 7 03.12.2028 -
Cristian Olivera Grêmio Active 135 / 123 40% 3 03.12.2028 -
Aarón Molinas Defensa y Justicia Active 135 / 140 40% 1 03.12.2028 -
Juan Ignacio Nardoni Grêmio Active 132 / 128 40% 1 02.12.2028 -
Pablo Maia Atletico Goianiense Active 133 / 138 40% 1 02.12.2028 -
Santiago Ramos Mingo Bahia Active 137 / 144 40% 1 02.12.2028 -
Jens Petter Hauge Bodo/Glimt Active 151 / 120 40% 5 01.12.2028 -
Erick Pulga Bahia Active 133 / 138 40% 5 01.12.2028 -
Marino Hinestroza Bahia Active 134 / 136 40% 1 01.12.2028 -
Juan Cruz de los Santos Nacional Active 138 / 130 40% 4 30.11.2028 -
Santiago Montiel Independiente Active 134 / 126 40% 2 30.11.2028 -
Antonio Galeano Remo Stars Active 133 / 135 40% 6 28.11.2028 -
Alexis Cuello San Lorenzo Active 127 / 130 40% 3 27.11.2028 -
Rodrigo Nestor Bahia Active 134 / 138 40% 1 26.11.2028 -
Marcos Antonio Sport Recife Active 144 / 139 40% 3 25.11.2028 -
Kayne Ramsay Atlético Mineiro Active 131 / 127 40% 1 25.11.2028 -
Guga Fluminense Active 127 / 133 40% 1 25.11.2028 -
Lyle Foster Rosenborg Active 141 / 116 40% 6 23.11.2028 -
Christian Kouamé Atlético Mineiro Active 132 / 119 40% 3 23.11.2028 -
Ruben Alte Viking Active 138 / 142 40% 3 22.11.2028 -
Luca Langoni Columbus Crew Active 133 / 151 40% 3 22.11.2028 -
Calebe Fortaleza Active 132 / 123 40% 2 22.11.2028 -
Tomás Conechny Racing Club Active 124 / 136 40% 3 21.11.2028 -
Bruno Leyes Godoy Cruz Active 135 / 118 40% 1 21.11.2028 -
Jaminton Campaz Rosario Central Active 137 / 135 40% 3 19.11.2028 -
Matko Miljevic Racing Club Active 137 / 121 40% 2 19.11.2028 -
Juan Pablo Freytes Fluminense Active 135 / 123 40% 2 19.11.2028 -
Matheus Henrique Cruzeiro Active 132 / 140 40% 2 19.11.2028 -
Vitinho Botafogo Active 136 / 146 40% 1 19.11.2028 -
Lautaro Maldonado Instituto Active 124 / 127 40% 3 17.11.2028 -
Fabrizio Correa Juventud Active 122 / 123 40% 2 17.11.2028 -
Oliver Dovin Coventry City Active 152 / 128 40% 3 17.11.2028 -
Matheus Bidu Corinthians Active 138 / 123 40% 1 17.11.2028 -
Martinelli Fluminense Active 145 / 149 40% 1 17.11.2028 -
Tosin Adarabioyo Grêmio Active 143 / 140 40% 1 17.11.2028 -
Gonzalo Montiel River Plate Active 133 / 136 40% 2 16.11.2028 -
Marco Di Cesare Racing Club Active 137 / 133 40% 1 16.11.2028 -
Bryan Ramírez Botafogo Active 126 / 119 40% 1 16.11.2028 -
Santiago Solari Racing Club Active 134 / 117 40% 7 11.11.2028 -
Matheus Cunha Cruzeiro Active 141 / 125 40% 3 11.11.2028 -
Alejo Medina Agropecuario Argentino Active 116 / 120 40% 2 11.11.2028 -
Joaquín Blázquez Talleres Active 122 / 119 40% 3 11.11.2028 -
Ángel Maciel Tacuarembo Active 106 / 110 40% 2 08.11.2028 -
Lucas Cuevas Rosario Central Active 131 / 132 40% 2 08.11.2028 -
Marcos López Gimnasia La Plata Active 133 / 140 40% 1 07.11.2028 -
Matías Galarza Talleres Active 127 / 120 40% 1 07.11.2028 -
Gustavo Neves Bragantino Active 127 / 136 40% 3 06.11.2028 -
Gonzalo Plata Nacional Active 149 / 135 40% 4 06.11.2028 -
Ignacio Suárez Cerro Active 118 / 119 40% 1 05.11.2028 -
Franco Orozco Lanús Active 124 / 137 40% 5 01.11.2028 -
Rico Henry River Plate Active 136 / 136 40% 2 31.10.2028 -
Ifeanyi Emmanuel Niger Tornadoes Active 122 / 92 40% 1 30.10.2028 -
Matthew Cox Rotherham United Active 131 / 128 40% 1 30.10.2028 -
Tiago Palacios Estudiantes Active 128 / 136 40% 3 27.10.2028 -
Hamidullo Abdunabiyev AGMK Active 100 / 122 40% 2 27.10.2028 -
Bruno Antúnez Boston River Active 122 / 124 40% 1 27.10.2028 -
Nuno Moreira Vasco da Gama Active 133 / 120 40% 1 25.10.2028 -
Andreas Pereira Palmeiras Active 141 / 138 40% 1 24.10.2028 -
Lautaro Giaccone Argentinos Juniors Active 126 / 116 40% 1 24.10.2028 -
Fredrik Sjøvold Bodo/Glimt Active 141 / 124 40% 2 23.10.2028 -
Franco Ibarra Rosario Central Active 139 / 139 40% 2 23.10.2028 -
Alan Rodríguez Internacional Active 134 / 137 40% 1 23.10.2028 -
Damián Bobadilla Sport Recife Active 130 / 130 40% 1 23.10.2028 -
Imanol Machuca Independiente Active 133 / 120 40% 1 23.10.2028 -
Alex Luna Instituto Active 132 / 139 40% 5 21.10.2028 -
Luciano Jachfe Nueva Chicago Active 130 / 133 40% 2 21.10.2028 -
Vladimir Nazarov Pakhtakor Active 114 / 115 40% 2 21.10.2028 -
Joaquín García Vélez Active 132 / 116 40% 1 21.10.2028 -
Oliver Petersen Odd Active 139 / 132 40% 1 21.10.2028 -
Guilherme Arana Fluminense Active 143 / 128 40% 1 21.10.2028 -
John Amah Plateau United Active 97 / 103 40% 3 19.10.2028 -
Magnus Sjøeng Valerenga Active 119 / 113 40% 3 19.10.2028 -
Isaac Boehmer Vancouver Whitecaps Active 105 / 111 40% 2 17.10.2028 -
Muhammadyusuf Sobirov Bunyodkor Active 107 / 136 40% 1 17.10.2028 -
Shahriar Rezaeian Siah Jamegan Active 128 / 136 40% 1 17.10.2028 -
Santiago Sosa Vasco da Gama Active 134 / 135 40% 2 16.10.2028 -
Renan Lodi Atlético Mineiro Active 145 / 142 40% 2 16.10.2028 -
Lucas Piton Vasco da Gama Active 142 / 134 40% 1 16.10.2028 -
Francisco Salerno Defensores Unidos Active 114 / 121 40% 3 14.10.2028 -
Juan Pablo Rial San Telmo Active 106 / 121 40% 1 14.10.2028 -
Facundo Sanguinetti Banfield Active 125 / 125 40% 1 10.10.2028 -
Biola Sabitu Remo Stars Active 99 / 104 40% 1 10.10.2028 -
Joel Mvuka Bodo/Glimt Active 130 / 110 40% 1 09.10.2028 -
Jonathan De Irastorza Independiente Active 133 / 138 40% 3 07.10.2028 -
Emil Breivik Molde Active 145 / 136 40% 1 07.10.2028 -
Ľubomír Belko Viking Active 137 / 117 40% 1 07.10.2028 -
Kevin Chacón Alianza Petrolera Active 107 / 101 40% 1 07.10.2028 -
Federico Losas Chacarita Juniors Active 126 / 113 40% 1 07.10.2028 -
Santiago González Tigre Active 140 / 136 40% 3 06.10.2028 -
Toni Fruk Talleres Active 139 / 147 40% 2 06.10.2028 -
Álvaro Busso Vélez Active 115 / 114 40% 1 02.10.2028 -
Nahuel Tenaglia Banfield Active 135 / 129 40% 1 30.09.2028 -
Joaquín Gho Argentinos Juniors Active 133 / 138 40% 2 26.09.2028 -
Juan Bisanz Huracán Active 126 / 122 40% 2 25.09.2028 -
Vitinho Internacional Active 138 / 114 40% 1 22.09.2028 -
Bruno Barticciotto Talleres Active 130 / 134 40% 1 18.09.2028 -
Khellven Palmeiras Active 139 / 144 40% 1 17.09.2028 -
Hércules Internacional Active 126 / 137 40% 1 17.09.2028 -
Mauricio Amaro Atlanta United FC Active 131 / 127 40% 2 13.09.2028 -
Nectar Triantis Minnesota United FC Active 141 / 144 40% 1 13.09.2028 -
Pavel Bucha Portland Timbers Active 147 / 129 40% 2 11.09.2028 -
Nicolás Romero Minnesota United FC Active 128 / 151 40% 1 09.09.2028 -
David Douděra New York Red Bulls Active 140 / 128 40% 2 08.09.2028 -
Luciano Juba Bahia Active 142 / 120 40% 1 08.09.2028 -
Niklas Dorsch Toronto FC Active 144 / 136 40% 1 08.09.2028 -
Iván Angulo Orlando City Active 132 / 146 40% 1 07.09.2028 -
David Da Costa Portland Timbers Active 126 / 142 40% 1 06.09.2028 -
Sondre Auklend Bodo/Glimt Active 133 / 141 40% 1 28.08.2028 -
Gastón Martirena Racing Club Active 138 / 132 40% 1 28.08.2028 -
Domagoj Bradarić Bari Active 143 / 141 40% 1 15.08.2028 -
Antonio Candela Spezia Active 148 / 144 40% 1 15.08.2028 -
Anthony Oyono Frosinone Active 131 / 138 40% 1 15.08.2028 -
Lamine Fanne Venezia Active 131 / 142 40% 1 14.08.2028 -
Matthias Braunöder Carrarese Active 126 / 144 40% 1 14.08.2028 -
Gabriele Piccinini Pisa Active 136 / 127 40% 1 14.08.2028 -
Victor Torp Bristol Rovers Active 130 / 127 40% 2 07.08.2028 -
Enrico Delprato Parma Active 161 / 144 40% 1 07.08.2028 -
Adam Randell Bristol City Active 128 / 138 40% 1 07.08.2028 -
Reuell Walters Luton Town Active 130 / 120 40% 1 24.07.2028 -
Giovanni Leoni Lincoln City Active 135 / 138 40% 1 24.07.2028 -
Nathan Broadhead Wrexham Active 135 / 110 40% 1 03.07.2028 -
Matěj Jurásek Doncaster Rovers Active 121 / 126 40% 1 03.07.2028 -
Alex Robertson Cardiff City Active 123 / 118 40% 1 03.07.2028 -
Jay Stansfield Birmingham Active 134 / 116 40% 2 26.06.2028 -
Derensili Sanches Fernandes Huddersfield Town Active 140 / 143 40% 1 26.06.2028 -
Malik Mothersille Stockport County Active 113 / 132 40% 3 01.06.2028 -
Tyler Goodrham Oxford United Active 133 / 133 40% 1 01.06.2028 -
Sam Greenwood Bristol City Rejected 129 / 124 40% 4 30.05.2028 Reject
Musa Barrow ES Setif Active 137 / 155 40% 2 30.05.2028 -
Ryan Kavuma-McQueen Accrington Stanley Active 121 / 144 40% 2 30.05.2028 -
Kyle Wootton Stockport County Active 122 / 121 40% 2 29.05.2028 -
Johnny Kenny Preston Active 118 / 122 40% 1 29.05.2028 -
Tyreece Campbell Charlton Athletic Active 122 / 116 40% 3 28.05.2028 -
Jayden Danns Bradford City Active 127 / 156 40% 2 26.05.2028 -
Richard Koné Queens Park Rangers Active 129 / 148 40% 3 26.05.2028 -
Christian Saydee Wigan Athletic Active 128 / 112 40% 1 19.05.2028 -
Mattia Felici Cagliari Active 133 / 132 40% 1 19.05.2028 -
Aaron Collins Milton Keynes Dons Active 132 / 136 40% 5 17.05.2028 -
Ante Crnac Bristol Rovers Active 122 / 147 40% 3 17.05.2028 -
Oli McBurnie Hull City Active 137 / 156 40% 1 17.05.2028 -
Charlie Kelman Barnsley Lost 131 / 101 40% 1 16.05.2028 -
Augustus Kargbo Blackburn Rovers Active 124 / 126 40% 1 08.05.2028 -
Callum O'Hare Sheffield United Active 133 / 151 40% 3 27.04.2028 -
Patson Daka Leicester City Active 143 / 146 40% 1 21.04.2028 -
M'Bala Nzola Cagliari Active 138 / 130 40% 1 16.04.2028 -
Arthur Sales Maritzburg United Active 130 / 98 40% 2 14.04.2028 -
Camillo Tavernelli Arezzo Active 122 / 121 40% 2 12.04.2028 -
Luca Williams-Barnett Walsall Active 124 / 132 40% 3 09.04.2028 -
Rocco Vata Watford Active 117 / 135 40% 1 09.04.2028 -
Aune Heggebø West Bromwich Albion Active 137 / 132 40% 2 08.04.2028 -
Willem Geubbels Lecce Active 137 / 131 40% 1 03.04.2028 -
Daniel Karlsbakk Sarpsborg 08 Active 139 / 114 40% 1 25.03.2028 -
Sam Nombe Milton Keynes Dons Active 115 / 131 40% 1 22.03.2028 -
Zito Luvumbo Cagliari Active 139 / 121 40% 1 19.03.2028 -
Alejo Cruz Juventud Active 121 / 111 40% 1 31.12.2027 -
Milad Yazdani Siah Jamegan Rejected 125 / 123 65% 1 14.06.2027 -
Favour Bala Plateau United Active 96 / 83 40% 1 31.12.2026 -